Regional Weather Roundup
Issued by NWS Kansas City/Pleasant Hill, MO

Home | Current Version | Previous Version | Text Only | Print | Product List | Glossary On
Versions: 1 2 3 4 5 6 7 8 9 10 11 12 13 14 15 16 17 18 19 20 21 22 23 24 25 26 27 28 29 30 31 32 33 34 35 36 37 38 39 40 41 42 43 44 45 46 47 48 49 50
000
ASUS43 KEAX 202111
RWREAX

WEATHER ROUNDUP FOR EASTERN KANSAS AND NORTHWEST MISSOURI
NATIONAL WEATHER SERVICE KANSAS CITY/PLEASANT HILL MO
300 PM CST SAT DEC 20 2014

KSZ040-057-103>105-MOZ028-029-037-043-202200-
...KANSAS CITY METROPOLITAN AREA...

CITY           SKY/WX    TMP DP  RH WIND       PRES   REMARKS
K.C. INTL      CLOUDY    45  38  76 S10       30.10S
K.C. DOWNTOWN  CLOUDY    47  38  71 S12       30.12R
LEES SUMMIT    CLOUDY    43  36  76 S12       30.12F
OLATHE - IXD   CLOUDY    45  38  76 S14       30.12R
OLATHE - OJC   CLOUDY    45  38  76 S12       30.11S
LAWRENCE       CLOUDY    48  38  68 S10       30.11R

$$

MOZ001>008-011>017-020>025-030>033-038>040-044>046-053-054-202200-
...NORTHERN AND CENTRAL MISSOURI...

CITY           SKY/WX    TMP DP  RH WIND       PRES   REMARKS
ST. JOSEPH     CLOUDY    43  37  79 S5        30.11S
MOSBY          CLOUDY    41  36  81 SE8       30.12S
WHITEMAN AFB   CLOUDY    40  35  83 SW9       30.15F WCI  34
CLINTON        CLOUDY    41  36  81 SW7       30.18S
SEDALIA        CLOUDY    41  35  79 S8        30.17S
WARSAW         NOT AVBL
MARSHALL       CLOUDY    41  37  87 S8        30.17F FOG
CHILLICOTHE      N/A     38  34  85 S7        30.15S WCI  33
KIRKSVILLE     CLOUDY    38  35  89 S7        30.15S WCI  33

$$

MOZ041-047>049-056>058-063>065-088>090-097-202200-
...EASTERN AND SOUTHERN MISSOURI...

CITY           SKY/WX    TMP DP  RH WIND       PRES   REMARKS
ST. LOUIS INTL CLOUDY    43  32  65 SE8       30.23R
SPIRIT OF STL  CLOUDY    43  33  68 S3        30.21S
COLUMBIA       CLOUDY    41  36  82 S5        30.18S
JEFFERSON CITY CLOUDY    43  35  73 S3        30.20S
MEXICO         CLOUDY    41  41 100 S6        30.18S
HANNIBAL       CLOUDY    39  34  81 SE3       30.19R HAZE
ROLLA          CLOUDY    41  34  76 W3        30.17S
LEBANON        CLOUDY    41  36  81 S8        30.18S
OSAGE BEACH    CLOUDY    43  34  70 SW6       30.18S
SPRINGFIELD    CLOUDY    42  36  79 SW8       30.17S
BRANSON        CLOUDY    41  39  93 CALM      30.19S
NEVADA         CLOUDY    41  34  75 SW9       30.18S
JOPLIN         CLOUDY    45  35  68 S9        30.18S
WEST PLAINS    CLOUDY    42  35  76 S7        30.20R

$$

IAZ060-094-KSZ022-034>040-054-083-096-NEZ052-066-093-202200-
...KANSAS...SOUTHEAST NEBRASKA AND IOWA...

CITY           SKY/WX    TMP DP  RH WIND       PRES   REMARKS
TOPEKA         PTSUNNY   51  40  65 S10       30.10R
MANHATTAN      MOSUNNY   48  40  73 S12       30.06S
EMPORIA        SUNNY     48  38  68 SW16      30.08F
CHANUTE        SUNNY     47  37  68 S10       30.14F
WICHITA        CLOUDY    49  37  63 S15       30.09F
OMAHA          CLOUDY    34  32  92 S10       30.07F FOG     WCI  26
LINCOLN        CLOUDY    36  32  85 S7        30.05F WCI  30
FALLS CITY     CLOUDY    35  32  88 SW5       30.09R FOG     WCI  31
LAMONI         CLOUDY    35  34  96 S7        30.11R FOG     WCI  29
DES MOINES     CLOUDY    36  33  89 S7        30.12R WCI  30

$$



USA.gov is the U.S. government's official web portal to all federal, state and local government web resources and services.